| time (UTC) | temp F | wind direction | speed knots | gust knots | rain 1hr in | rain 24hr in | rain mn in | humidity % | barometer mb |
| 20260504233619 | 64 | 246 | 3.5 | 7.8 | 0.00 | 0.00 | 0.00 | 73 | 1017.0 |
| 20260504233115 | 64 | 319 | 1.7 | 7.8 | 0.00 | 0.00 | 0.00 | 74 | 1017.0 |
| 20260504232613 | 64 | 253 | 5.2 | 8.7 | 0.00 | 0.00 | 0.00 | 74 | 1017.3 |
| 20260504232110 | 65 | 269 | 5.2 | 7.8 | 0.00 | 0.00 | 0.00 | 73 | 1017.0 |
| 20260504231607 | 65 | 318 | 2.6 | 6.1 | 0.00 | 0.00 | 0.00 | 74 | 1017.0 |
| 20260504231103 | 66 | 191 | 1.7 | 7.0 | 0.00 | 0.00 | 0.00 | 71 | 1017.3 |
| 20260504230559 | 66 | 280 | 3.5 | 7.8 | 0.00 | 0.00 | 0.00 | 72 | 1017.6 |
| 20260504230058 | 66 | 251 | 2.6 | 6.1 | 0.00 | 0.00 | 0.00 | 71 | 1017.6 |
| 20260504225555 | 66 | 210 | 0.9 | 2.6 | 0.00 | 0.00 | 0.00 | 71 | 1017.3 |
| 20260504225052 | 67 | 194 | 1.7 | 2.6 | 0.00 | 0.00 | 0.00 | 68 | 1017.3 |
| 20260504224549 | 66 | 312 | 3.5 | 3.5 | 0.00 | 0.00 | 0.00 | 69 | 1017.6 |
| 20260504224046 | 66 | 284 | 2.6 | 7.0 | 0.00 | 0.00 | 0.00 | 69 | 1017.3 |
| 20260504223543 | 66 | 319 | 2.6 | 5.2 | 0.00 | 0.00 | 0.00 | 70 | 1017.6 |
| 20260504223038 | 67 | 298 | 1.7 | 5.2 | 0.00 | 0.00 | 0.00 | 68 | 1017.6 |
| 20260504222536 | 66 | 233 | 2.6 | 7.0 | 0.00 | 0.00 | 0.00 | 70 | 1017.6 |
| 20260504222033 | 66 | 223 | 4.3 | 8.7 | 0.00 | 0.00 | 0.00 | 71 | 1017.6 |
| 20260504221530 | 67 | 205 | 5.2 | 7.8 | 0.00 | 0.00 | 0.00 | 68 | 1018.0 |
| 20260504221027 | 66 | 247 | 4.3 | 7.8 | 0.00 | 0.00 | 0.00 | 69 | 1017.6 |
| 20260504220523 | 67 | 235 | 3.5 | 6.1 | 0.00 | 0.00 | 0.00 | 69 | 1017.6 |
| 20260504220021 | 67 | 243 | 1.7 | 5.2 | 0.00 | 0.00 | 0.00 | 68 | 1018.3 |
| 20260504215517 | 66 | 330 | 3.5 | 7.0 | 0.00 | 0.00 | 0.00 | 69 | 1018.0 |
| 20260504215014 | 66 | 264 | 4.3 | 7.8 | 0.00 | 0.00 | 0.00 | 68 | 1018.3 |
| 20260504214510 | 66 | 208 | 5.2 | 6.1 | 0.00 | 0.00 | 0.00 | 67 | 1018.3 |
| 20260504214006 | 66 | 317 | 2.6 | 8.7 | 0.00 | 0.00 | 0.00 | 69 | 1018.3 |
| 20260504213503 | 66 | 273 | 3.5 | 7.0 | 0.00 | 0.00 | 0.00 | 67 | 1018.3 |
| 20260504213001 | 65 | 304 | 5.2 | 8.7 | 0.00 | 0.00 | 0.00 | 68 | 1018.3 |
| 20260504212456 | 66 | 258 | 3.5 | 9.6 | 0.00 | 0.00 | 0.00 | 66 | 1018.3 |
| 20260504211954 | 65 | 314 | 2.6 | 7.8 | 0.00 | 0.00 | 0.00 | 67 | 1018.7 |
| 20260504211450 | 66 | 224 | 3.5 | 7.0 | 0.00 | 0.00 | 0.00 | 66 | 1018.3 |
| 20260504210948 | 67 | 277 | 2.6 | 7.8 | 0.00 | 0.00 | 0.00 | 64 | 1018.3 |
| 20260504210444 | 66 | 221 | 2.6 | 3.5 | 0.00 | 0.00 | 0.00 | 65 | 1018.7 |
| 20260504205941 | 66 | 275 | 4.3 | 6.1 | 0.00 | 0.00 | 0.00 | 64 | 1018.3 |
| 20260504205439 | 66 | 290 | 3.5 | 7.0 | 0.00 | 0.00 | 0.00 | 64 | 1018.3 |
| 20260504204937 | 65 | 358 | 5.2 | 7.8 | 0.00 | 0.00 | 0.00 | 66 | 1018.7 |
| 20260504204435 | 65 | 225 | 6.1 | 8.7 | 0.00 | 0.00 | 0.00 | 65 | 1018.3 |
| 20260504203934 | 65 | 266 | 3.5 | 9.6 | 0.00 | 0.00 | 0.00 | 63 | 1018.3 |
| 20260504203431 | 66 | 234 | 5.2 | 7.0 | 0.00 | 0.00 | 0.00 | 62 | 1018.7 |
| 20260504202927 | 65 | 315 | 1.7 | 7.0 | 0.00 | 0.00 | 0.00 | 65 | 1018.3 |
| 20260504202424 | 65 | 244 | 5.2 | 7.8 | 0.00 | 0.00 | 0.00 | 65 | 1018.3 |
| 20260504201920 | 66 | 306 | 3.5 | 7.8 | 0.00 | 0.00 | 0.00 | 64 | 1018.3 |
| 20260504201418 | 67 | 248 | 6.1 | 8.7 | 0.00 | 0.00 | 0.00 | 62 | 1018.3 |
| 20260504200915 | 67 | 196 | 2.6 | 7.0 | 0.00 | 0.00 | 0.00 | 61 | 1018.3 |
| 20260504200412 | 67 | 279 | 3.5 | 7.0 | 0.00 | 0.00 | 0.00 | 61 | 1018.7 |
| 20260504195908 | 67 | 285 | 2.6 | 6.1 | 0.00 | 0.00 | 0.00 | 61 | 1018.3 |
| 20260504195404 | 67 | 245 | 3.5 | 8.7 | 0.00 | 0.00 | 0.00 | 59 | 1018.3 |
| 20260504194901 | 67 | 300 | 2.6 | 6.1 | 0.00 | 0.00 | 0.00 | 61 | 1018.3 |
| 20260504194357 | 66 | 259 | 4.3 | 6.1 | 0.00 | 0.00 | 0.00 | 61 | 1018.3 |
| 20260504193853 | 67 | 221 | 3.5 | 6.1 | 0.00 | 0.00 | 0.00 | 61 | 1018.7 |
| 20260504193350 | 66 | 87 | 3.5 | 7.8 | 0.00 | 0.00 | 0.00 | 61 | 1018.3 |
| 20260504192849 | 67 | 131 | 2.6 | 6.1 | 0.00 | 0.00 | 0.00 | 62 | 1018.7 |
| 20260504192346 | 67 | 244 | 5.2 | 7.0 | 0.00 | 0.00 | 0.00 | 62 | 1018.7 |
| 20260504191844 | 67 | 213 | 3.5 | 6.1 | 0.00 | 0.00 | 0.00 | 64 | 1018.7 |
| 20260504191342 | 67 | 224 | 3.5 | 7.0 | 0.00 | 0.00 | 0.00 | 63 | 1018.3 |
| 20260504190837 | 67 | 324 | 2.6 | 6.1 | 0.00 | 0.00 | 0.00 | 62 | 1018.3 |
| 20260504190333 | 66 | 258 | 1.7 | 3.5 | 0.00 | 0.00 | 0.00 | 63 | 1018.7 |
| 20260504185830 | 66 | 314 | 3.5 | 7.0 | 0.00 | 0.00 | 0.00 | 64 | 1018.3 |
| 20260504185327 | 66 | 297 | 1.7 | 6.1 | 0.00 | 0.00 | 0.00 | 64 | 1018.7 |
| 20260504184823 | 66 | 230 | 1.7 | 5.2 | 0.00 | 0.00 | 0.00 | 61 | 1018.3 |
| 20260504184319 | 65 | 266 | 6.1 | 7.8 | 0.00 | 0.00 | 0.00 | 66 | 1018.7 |
| 20260504183815 | 65 | 285 | 4.3 | 7.8 | 0.00 | 0.00 | 0.00 | 66 | 1018.7 |
| 20260504183313 | 65 | 239 | 3.5 | 7.8 | 0.00 | 0.00 | 0.00 | 64 | 1018.7 |
| 20260504182810 | 65 | 271 | 5.2 | 7.0 | 0.00 | 0.00 | 0.00 | 63 | 1018.7 |
| 20260504182308 | 65 | 260 | 1.7 | 6.1 | 0.00 | 0.00 | 0.00 | 63 | 1018.7 |
| 20260504181805 | 65 | 321 | 4.3 | 7.8 | 0.00 | 0.00 | 0.00 | 64 | 1018.7 |
| 20260504181302 | 66 | 315 | 2.6 | 9.6 | 0.00 | 0.00 | 0.00 | 63 | 1018.7 |
| 20260504180801 | 67 | 256 | 3.5 | 8.7 | 0.00 | 0.00 | 0.00 | 60 | 1018.7 |
| 20260504180259 | 66 | 93 | 1.7 | 7.8 | 0.00 | 0.00 | 0.00 | 63 | 1018.7 |
| 20260504175757 | 65 | 214 | 2.6 | 8.7 | 0.00 | 0.00 | 0.00 | 65 | 1018.7 |
| 20260504175253 | 64 | 188 | 2.6 | 7.0 | 0.00 | 0.00 | 0.00 | 65 | 1018.3 |
| 20260504174751 | 64 | 225 | 3.5 | 6.1 | 0.00 | 0.00 | 0.00 | 65 | 1018.7 |
| 20260504174249 | 64 | 315 | 2.6 | 8.7 | 0.00 | 0.00 | 0.00 | 65 | 1018.7 |
| 20260504173745 | 64 | 228 | 5.2 | 7.0 | 0.00 | 0.00 | 0.00 | 66 | 1018.7 |
| 20260504173242 | 64 | 282 | 5.2 | 8.7 | 0.00 | 0.00 | 0.00 | 65 | 1018.7 |
| 20260504172739 | 64 | 292 | 1.7 | 7.0 | 0.00 | 0.00 | 0.00 | 66 | 1018.3 |
| 20260504172236 | 65 | 257 | 3.5 | 7.0 | 0.00 | 0.00 | 0.00 | 66 | 1018.7 |
| 20260504171732 | 66 | 232 | 2.6 | 7.8 | 0.00 | 0.00 | 0.00 | 64 | 1018.7 |
| 20260504171229 | 65 | 11 | 0.9 | 6.1 | 0.00 | 0.00 | 0.00 | 63 | 1018.3 |
| 20260504170726 | 65 | 241 | 1.7 | 6.1 | 0.00 | 0.00 | 0.00 | 65 | 1018.3 |
| 20260504170223 | 65 | 321 | 3.5 | 7.0 | 0.00 | 0.00 | 0.00 | 65 | 1018.0 |
| 20260504160141 | 64 | 203 | 0.9 | 3.5 | 0.00 | 0.00 | 0.00 | 66 | 1017.6 |
| 20260504151109 | 63 | 193 | 0.0 | 1.7 | 0.00 | 0.00 | 0.00 | 66 | 1017.6 |
| 20260504150606 | 64 | 315 | 0.9 | 0.9 | 0.00 | 0.00 | 0.00 | 64 | 1017.6 |
| 20260504150103 | 65 | 347 | 0.0 | 0.9 | 0.00 | 0.00 | 0.00 | 65 | 1017.6 |
| 20260504141032 | 58 | 338 | 0.0 | 0.0 | 0.00 | 0.00 | 0.00 | 80 | 1017.6 |
| 20260504140528 | 58 | 323 | 0.0 | 1.7 | 0.00 | 0.00 | 0.00 | 80 | 1017.6 |
| 20260504130453 | 58 | 332 | 0.0 | 0.0 | 0.00 | 0.00 | 0.00 | 82 | 1017.0 |
| 20260504110340 | 58 | 333 | 0.0 | 0.0 | 0.00 | 0.00 | 0.00 | 84 | 1017.0 |
| 20260504100257 | 57 | 342 | 0.0 | 0.0 | 0.00 | 0.00 | 0.00 | 87 | 1017.0 |
| 20260504081651 | 59 | 328 | 0.9 | 2.6 | 0.00 | 0.00 | 0.00 | 82 | 1018.0 |
| 20260504081147 | 59 | 297 | 0.9 | 0.9 | 0.00 | 0.00 | 0.00 | 82 | 1018.0 |
| 20260504080643 | 59 | 303 | 1.7 | 2.6 | 0.00 | 0.00 | 0.00 | 82 | 1018.0 |
| 20260504080140 | 59 | 333 | 0.9 | 0.9 | 0.00 | 0.00 | 0.00 | 82 | 1018.0 |
| 20260504070108 | 60 | 337 | 0.9 | 1.7 | 0.00 | 0.00 | 0.00 | 79 | 1018.0 |
| 20260504050456 | 60 | 292 | 1.7 | 1.7 | 0.00 | 0.00 | 0.00 | 74 | 1017.6 |
| 20260504045953 | 60 | 255 | 1.7 | 2.6 | 0.00 | 0.00 | 0.00 | 73 | 1017.3 |
| 20260504045449 | 60 | 334 | 0.0 | 1.7 | 0.00 | 0.00 | 0.00 | 73 | 1017.3 |
| 20260504044945 | 60 | 332 | 0.0 | 2.6 | 0.00 | 0.00 | 0.00 | 73 | 1017.3 |
| 20260504044443 | 60 | 330 | 0.9 | 1.7 | 0.00 | 0.00 | 0.00 | 74 | 1017.3 |
| 20260504043940 | 60 | 328 | 0.0 | 0.9 | 0.00 | 0.00 | 0.00 | 74 | 1017.3 |
| 20260504043437 | 60 | 314 | 0.9 | 1.7 | 0.00 | 0.00 | 0.00 | 74 | 1017.3 |
| 20260504042935 | 60 | 257 | 2.6 | 3.5 | 0.00 | 0.00 | 0.00 | 74 | 1017.3 |
| 20260504042431 | 60 | 249 | 1.7 | 3.5 | 0.00 | 0.00 | 0.00 | 74 | 1017.3 |
| 20260504041928 | 60 | 290 | 2.6 | 5.2 | 0.00 | 0.00 | 0.00 | 74 | 1017.3 |
| 20260504041424 | 60 | 327 | 1.7 | 3.5 | 0.00 | 0.00 | 0.00 | 75 | 1017.0 |
| 20260504040920 | 60 | 207 | 1.7 | 3.5 | 0.00 | 0.00 | 0.00 | 76 | 1017.0 |
| 20260504040418 | 60 | 340 | 0.0 | 0.9 | 0.00 | 0.00 | 0.00 | 77 | 1017.0 |
| 20260504035914 | 60 | 194 | 3.5 | 3.5 | 0.00 | 0.00 | 0.00 | 77 | 1017.0 |
| 20260504035412 | 60 | 307 | 1.7 | 2.6 | 0.00 | 0.00 | 0.00 | 77 | 1016.6 |
| 20260504034908 | 60 | 204 | 1.7 | 2.6 | 0.00 | 0.00 | 0.00 | 78 | 1017.0 |
| 20260504034405 | 60 | 263 | 0.9 | 3.5 | 0.00 | 0.00 | 0.00 | 79 | 1016.6 |
| 20260504033902 | 60 | 257 | 2.6 | 3.5 | 0.00 | 0.00 | 0.00 | 79 | 1017.0 |
| 20260504033400 | 60 | 344 | 0.0 | 1.7 | 0.00 | 0.00 | 0.00 | 80 | 1017.0 |
| 20260504032857 | 60 | 251 | 0.9 | 1.7 | 0.00 | 0.00 | 0.00 | 80 | 1017.0 |
| 20260504032354 | 60 | 273 | 1.7 | 3.5 | 0.00 | 0.00 | 0.00 | 80 | 1016.6 |
| 20260504031850 | 60 | 289 | 1.7 | 3.5 | 0.00 | 0.00 | 0.00 | 80 | 1016.3 |
| 20260504031348 | 60 | 267 | 4.3 | 5.2 | 0.00 | 0.00 | 0.00 | 79 | 1016.3 |
| 20260504030844 | 60 | 289 | 1.7 | 3.5 | 0.00 | 0.00 | 0.00 | 78 | 1016.6 |
| 20260504030341 | 60 | 334 | 0.9 | 2.6 | 0.00 | 0.00 | 0.00 | 78 | 1016.6 |
| 20260504025837 | 60 | 324 | 2.6 | 3.5 | 0.00 | 0.00 | 0.00 | 77 | 1016.6 |
| 20260504025334 | 60 | 272 | 0.9 | 2.6 | 0.00 | 0.00 | 0.00 | 77 | 1016.3 |
| 20260504024831 | 60 | 301 | 0.9 | 5.2 | 0.00 | 0.00 | 0.00 | 77 | 1016.3 |
| 20260504024327 | 60 | 321 | 0.9 | 1.7 | 0.00 | 0.00 | 0.00 | 78 | 1016.3 |
| 20260504023824 | 60 | 261 | 3.5 | 5.2 | 0.00 | 0.00 | 0.00 | 79 | 1016.3 |
| 20260504023321 | 60 | 238 | 5.2 | 6.1 | 0.00 | 0.00 | 0.00 | 79 | 1016.3 |
| 20260504022816 | 60 | 328 | 0.0 | 5.2 | 0.00 | 0.00 | 0.00 | 79 | 1016.3 |
| 20260504022314 | 60 | 315 | 1.7 | 2.6 | 0.00 | 0.00 | 0.00 | 79 | 1016.3 |
| 20260504021810 | 60 | 197 | 4.3 | 7.0 | 0.00 | 0.00 | 0.00 | 78 | 1016.0 |
| 20260504021308 | 60 | 256 | 2.6 | 5.2 | 0.00 | 0.00 | 0.00 | 78 | 1016.0 |
| 20260504020804 | 61 | 183 | 2.6 | 3.5 | 0.00 | 0.00 | 0.00 | 77 | 1016.0 |
| 20260504020301 | 60 | 221 | 1.7 | 5.2 | 0.00 | 0.00 | 0.00 | 77 | 1016.0 |
| 20260504015757 | 61 | 261 | 2.6 | 3.5 | 0.00 | 0.00 | 0.00 | 77 | 1016.0 |
| 20260504015254 | 61 | 250 | 0.9 | 6.1 | 0.00 | 0.00 | 0.00 | 77 | 1016.0 |
| 20260504014750 | 61 | 244 | 3.5 | 6.1 | 0.00 | 0.00 | 0.00 | 76 | 1016.0 |
| 20260504014246 | 61 | 299 | 0.9 | 1.7 | 0.00 | 0.00 | 0.00 | 76 | 1016.0 |
| 20260504013744 | 61 | 329 | 0.9 | 2.6 | 0.00 | 0.00 | 0.00 | 76 | 1016.0 |
| 20260504013242 | 61 | 267 | 1.7 | 2.6 | 0.00 | 0.00 | 0.00 | 75 | 1015.6 |
| 20260504012738 | 61 | 229 | 3.5 | 5.2 | 0.00 | 0.00 | 0.00 | 75 | 1016.0 |
| 20260504012236 | 61 | 182 | 4.3 | 6.1 | 0.00 | 0.00 | 0.00 | 75 | 1016.0 |
| 20260504011732 | 62 | 334 | 0.9 | 5.2 | 0.00 | 0.00 | 0.00 | 75 | 1016.0 |
| 20260504011229 | 62 | 221 | 2.6 | 2.6 | 0.00 | 0.00 | 0.00 | 75 | 1016.0 |
| 20260504010725 | 62 | 239 | 2.6 | 3.5 | 0.00 | 0.00 | 0.00 | 74 | 1016.0 |
| 20260504010221 | 62 | 264 | 0.9 | 2.6 | 0.00 | 0.00 | 0.00 | 75 | 1016.0 |
| 20260504005718 | 62 | 216 | 3.5 | 5.2 | 0.00 | 0.00 | 0.00 | 74 | 1016.0 |
| 20260504005215 | 63 | 319 | 1.7 | 2.6 | 0.00 | 0.00 | 0.00 | 73 | 1016.0 |
| 20260504004713 | 62 | 309 | 0.9 | 2.6 | 0.00 | 0.00 | 0.00 | 73 | 1015.6 |
| 20260504004209 | 63 | 264 | 3.5 | 5.2 | 0.00 | 0.00 | 0.00 | 72 | 1015.6 |
| 20260504003706 | 63 | 145 | 2.6 | 3.5 | 0.00 | 0.00 | 0.00 | 71 | 1015.6 |
| 20260504003203 | 64 | 312 | 3.5 | 5.2 | 0.00 | 0.00 | 0.00 | 69 | 1016.0 |
| 20260504002700 | 64 | 339 | 0.9 | 3.5 | 0.00 | 0.00 | 0.00 | 70 | 1015.6 |
| 20260504002157 | 64 | 292 | 0.9 | 2.6 | 0.00 | 0.00 | 0.00 | 70 | 1015.6 |
| 20260504001655 | 64 | 221 | 2.6 | 5.2 | 0.00 | 0.00 | 0.00 | 70 | 1015.6 |
| 20260504001151 | 64 | 238 | 1.7 | 1.7 | 0.00 | 0.00 | 0.00 | 70 | 1015.6 |
| 20260504000648 | 65 | 152 | 1.7 | 3.5 | 0.00 | 0.00 | 0.00 | 69 | 1015.3 |
| 20260504000145 | 64 | 207 | 1.7 | 2.6 | 0.00 | 0.00 | 0.00 | 70 | 1015.6 |
| 20260503235643 | 63 | 310 | 1.7 | 5.2 | 0.00 | 0.00 | 0.00 | 71 | 1015.3 |
| 20260503235140 | 63 | 336 | 0.9 | 3.5 | 0.00 | 0.00 | 0.00 | 73 | 1015.6 |
| 20260503234638 | 63 | 328 | 1.7 | 1.7 | 0.00 | 0.00 | 0.00 | 73 | 1015.3 |
| 20260503234136 | 63 | 318 | 1.7 | 5.2 | 0.00 | 0.00 | 0.00 | 73 | 1015.6 |